Content
SEND FEEDBACK

Daily
Averages
Monthly
Summary
United States of America

CHICAGO, ILLINOIS


Home > North America > United States > Illinois
Elevation: 674 feet     Latitude: 41 59N     Longitude: 087 54W

WEATHER
 
SELECT A DAY
Number of Records: 194,962;   Date Range: 7/8/95 - 8/12/14
 
SHARE

PRINT THIS DATA

[ ← Previous Day ]
WEATHER ALMANAC - JULY 11, 2013
[ Next Day → ]
[ °C ]   °F
Weather ElementAverageHighLow
Temperature71.4 °F80.1 °F (1:52 pm)62.1 °F (5:52 am)
Dewpoint54.4 °F60.1 °F (1:52 am)48.9 °F (11:52 am)
Humidity57.7 %86 % (5:52 am)35 % (1:52 pm)
Barometer30.09 in30.12 in (10:52 am)30.04 in (1:52 am)
Wind Speed4.9 mph11.5 mph (1:52 pm)
Weather ElementAverage
Visibility9.6 mi
Wind DirectionE (84.8 °)

Weather ElementTotal
Precipitation---
Cooling Degree Days6.1 (Base 65)
Growing Degree Days21.1 (Base 50)
Averaged from 23 records on July 11, 2013
WEATHER CONDITIONS BREAKOUT
WIND DIRECTION BREAKOUT
WEATHER BY HOUR - JULY 11, 2013
[ °C ]   °F
Local TimeTemperatureDewpointHumidityBarometerVisibilityWind DirectionWind SpeedGust SpeedPrecipitationEventsConditions
1:52 AM66.0 °F60.1 °F81 %30.04 in9.0 miCalmClear
2:52 AM66.0 °F59.0 °F78 %30.04 in9.0 miCalmMostly Cloudy
3:52 AM64.0 °F57.9 °F80 %30.04 in9.0 miCalmPartly Cloudy
4:52 AM64.0 °F59.0 °F84 %30.06 in9.0 miCalmClear
5:52 AM62.1 °F57.9 °F86 %30.07 in7.0 miNorth (350°)3.5 mphClear
6:52 AM66.0 °F57.9 °F75 %30.09 in8.0 miNorth (360°)4.6 mphClear
7:52 AM70.0 °F59.0 °F68 %30.10 in9.0 miNorth (360°)3.5 mphClear
8:52 AM73.9 °F55.0 °F52 %30.10 in10.0 miNorth (10°)6.9 mphClear
9:52 AM75.0 °F52.0 °F44 %30.11 in10.0 miNE (50°)6.9 mphClear
10:52 AM77.0 °F50.0 °F39 %30.12 in10.0 miNE (40°)5.8 mphClear
11:52 AM78.1 °F48.9 °F36 %30.12 in10.0 miENE (70°)8.1 mphClear
12:52 PM78.1 °F48.9 °F36 %30.12 in10.0 miNNE (30°)10.4 mphClear
1:52 PM80.1 °F50.0 °F35 %30.11 in10.0 miENE (60°)11.5 mphClear
2:52 PM79.0 °F51.1 °F38 %30.11 in10.0 miNE (40°)8.1 mphClear
3:52 PM78.1 °F51.1 °F39 %30.11 in10.0 miNNE (30°)9.2 mphClear
4:52 PM77.0 °F54.0 °F45 %30.11 in10.0 miNE (50°)10.4 mphClear
5:52 PM75.9 °F54.0 °F46 %30.10 in10.0 miENE (60°)8.1 mphClear
6:52 PM75.0 °F52.0 °F44 %30.09 in10.0 miNE (50°)6.9 mphClear
7:52 PM73.0 °F51.1 °F46 %30.09 in10.0 miCalmClear
8:52 PM68.0 °F52.0 °F56 %30.08 in10.0 miNNE (30°)4.6 mphClear
9:52 PM68.0 °F57.0 °F68 %30.10 in10.0 miCalmClear
10:52 PM64.9 °F57.0 °F75 %30.10 in10.0 miNorth (360°)3.5 mphClear
11:52 PM64.0 °F55.9 °F75 %30.10 in10.0 miCalmClear
Hourly data recorded from KPWK, located miles away from Chicago, Illinois







STORIES FROM OUR PARTNERS